Back to catalog

COSMOS 2251 DEB

AliveLEO
NORAD 34024·DEBRIS·🇷🇺 Russia

Launched Jun 16, 1993 from Plesetsk Cosmodrome

Loading…

Next Passes (next 24 hours)

TLE

FreshSource: Space-Track

Epoch: Sep 14, 2026, 05:38 UTC

1 34024U 93036HK  26257.23484924  .00000256  00000-0  97432-4 0  9994
2 34024  74.0472 170.9397 0021018 161.3202 353.0997 14.35637199919779

Track COSMOS 2251 DEB in real time with AllMySat

Download on the App Store